Weather History for PHNL - November, 2013

Change the Weather History Date:

Sunday, November 3, 2013

  Actual Average Record
Temperature  
Mean Temperature 81 °F 79 °F  
Max Temperature 86 °F 85 °F 90 °F (1969)
Min Temperature 76 °F 72 °F 65 °F (1955)
Degree Days  
Heating Degree Days 0 0  
Month to date heating degree days 0 0  
Since 1 July heating degree days 0 0  
Cooling Degree Days 16 14  
Month to date cooling degree days 48 42  
Year to date cooling degree days 3823 3988  
Growing Degree Days 30 (Base 50)    
Moisture  
Dew Point 63 °F    
Average Humidity 54    
Maximum Humidity 64    
Minimum Humidity 44    
Precipitation  
Precipitation T in 0.09 in 0.90 in (1929)
Month to date precipitation T 0.26  
Year to date precipitation 10.59 11.70  
Snow  
Snow 0.00 in - - ()
Month to date snowfall 0.0  
Since 1 July snowfall 0.0  
Since 1 September snowfall 0.0  
Snow Depth 0.00 in    
Sea Level Pressure  
Sea Level Pressure 30.04 in    
Wind  
Wind Speed 13 mph (NE)    
Max Wind Speed 25 mph    
Max Gust Speed 31 mph    
Visibility 10 miles    
Events Rain    
T = Trace of Precipitation, MM = Missing Value Source: NWS Daily Summary

Daily Weather History Graph

Daily Weather History Graph

Search for Another Location

Airport or City:

Trip Planner

Search our weather history database for the weather conditions in past years. The results will help you decide how hot, cold, wet, or windy it might be!

Date:

Astronomy

Nov. 03, 2013 Rise Set
Actual Time 6:35 AM HST 5:54 PM HST
Civil Twilight 6:12 AM HST 6:17 PM HST
Nautical Twilight 5:46 AM HST 6:43 PM HST
Astronomical Twilight 5:20 AM HST 7:09 PM HST
Moon 6:49 AM HST (11/3) 6:22 PM HST (11/3)
Length of Visible Light 12h 04m
Length of Day
11h 18m
New Moon, 0% of the Moon is Illuminated
Nov 3
New Moon
Nov 9
First Quarter
Nov 17
Full
Nov 25
Last Quarter
Dec 2
New

Hourly Weather History & Observations

Time (HST) Temp. Heat Index Dew Point Humidity Pressure Visibility Wind Dir Wind Speed Gust Speed Precip Events Conditions
12:53 AM 77.0 °F - 64.9 °F 66% 30.05 in 10.0 mi ENE 12.7 mph 20.7 mph N/A   Scattered Clouds
1:53 AM 77.0 °F - 64.9 °F 66% 30.05 in 10.0 mi ENE 13.8 mph 20.7 mph N/A   Scattered Clouds
2:53 AM 77.0 °F - 64.9 °F 66% 30.03 in 10.0 mi NE 11.5 mph - N/A   Scattered Clouds
3:53 AM 77.0 °F - 64.9 °F 66% 30.03 in 10.0 mi NE 9.2 mph - 0.00 in Rain Light Rain
4:53 AM 77.0 °F - 64.0 °F 64% 30.03 in 10.0 mi ENE 9.2 mph - 0.00 in   Scattered Clouds
5:53 AM 77.0 °F - 64.0 °F 64% 30.03 in 10.0 mi East 12.7 mph 21.9 mph N/A   Scattered Clouds
6:53 AM 77.0 °F - 64.0 °F 64% 30.05 in 10.0 mi ENE 10.4 mph - 0.00 in   Mostly Cloudy
7:53 AM 78.1 °F - 64.0 °F 62% 30.07 in 10.0 mi ENE 12.7 mph - N/A   Mostly Cloudy
8:53 AM 81.0 °F 82.5 °F 64.0 °F 56% 30.08 in 10.0 mi ENE 12.7 mph 21.9 mph N/A   Mostly Cloudy
9:53 AM 82.9 °F 84.4 °F 64.0 °F 53% 30.09 in 10.0 mi ENE 16.1 mph 23.0 mph N/A   Scattered Clouds
10:53 AM 84.0 °F 84.5 °F 62.1 °F 47% 30.07 in 10.0 mi NE 17.3 mph 26.5 mph N/A   Scattered Clouds
11:53 AM 84.9 °F 85.4 °F 62.1 °F 46% 30.04 in 10.0 mi ENE 20.7 mph 28.8 mph N/A   Scattered Clouds
12:53 PM 84.9 °F 85.4 °F 62.1 °F 46% 30.01 in 10.0 mi NE 19.6 mph 27.6 mph N/A   Scattered Clouds
1:53 PM 84.9 °F 85.4 °F 62.1 °F 46% 29.99 in 10.0 mi ENE 17.3 mph 31.1 mph N/A   Scattered Clouds
2:53 PM 84.9 °F 85.0 °F 61.0 °F 44% 29.98 in 10.0 mi ENE 20.7 mph 28.8 mph N/A   Scattered Clouds
3:53 PM 82.9 °F 83.7 °F 62.1 °F 49% 29.99 in 10.0 mi NE 20.7 mph 25.3 mph N/A   Scattered Clouds
4:53 PM 82.0 °F 83.0 °F 62.1 °F 51% 29.99 in 10.0 mi NE 15.0 mph 24.2 mph N/A   Scattered Clouds
5:53 PM 79.0 °F - 62.1 °F 56% 30.00 in 10.0 mi NE 12.7 mph - N/A   Scattered Clouds
6:53 PM 78.1 °F - 62.1 °F 58% 30.02 in 10.0 mi NE 8.1 mph - N/A   Scattered Clouds
7:53 PM 78.1 °F - 62.1 °F 58% 30.05 in 10.0 mi ENE 12.7 mph 21.9 mph N/A   Scattered Clouds
8:53 PM 77.0 °F - 63.0 °F 62% 30.06 in 10.0 mi NNE 6.9 mph - N/A   Scattered Clouds
9:53 PM 77.0 °F - 64.0 °F 64% 30.06 in 10.0 mi NNE 6.9 mph - N/A   Scattered Clouds
10:53 PM 77.0 °F - 63.0 °F 62% 30.05 in 10.0 mi Variable 4.6 mph - N/A   Scattered Clouds
11:53 PM 77.0 °F - 64.0 °F 64% 30.04 in 10.0 mi ENE 4.6 mph - N/A   Scattered Clouds